| time (UTC) | temp F | wind direction | speed MPH | gust MPH | rain 1hr in | rain 24hr in | rain mn in | humidity % | barometer mb |
| 20260506013334 | 60 | 0 | 5.0 | 20.0 | 0.00 | 0.00 | 0.12 | 39 | 880.1 |
| 20260506012833 | 60 | 317 | 9.0 | 20.0 | 0.00 | 0.00 | 0.12 | 37 | 879.9 |
| 20260506012333 | 61 | 308 | 9.0 | 19.0 | 0.00 | 0.00 | 0.12 | 37 | 879.8 |
| 20260506011832 | 61 | 248 | 7.0 | 18.0 | 0.00 | 0.00 | 0.12 | 34 | 879.9 |
| 20260506011332 | 62 | 328 | 4.0 | 16.0 | 0.00 | 0.00 | 0.12 | 33 | 879.8 |
| 20260506010314 | 62 | 343 | 9.0 | 21.0 | 0.00 | 0.00 | 0.12 | 33 | 879.7 |
| 20260506005813 | 62 | 312 | 7.0 | 20.0 | 0.00 | 0.00 | 0.12 | 34 | 879.3 |
| 20260506005312 | 62 | 323 | 7.0 | 20.0 | 0.00 | 0.00 | 0.12 | 34 | 879.6 |
| 20260506004811 | 63 | 306 | 6.0 | 21.0 | 0.00 | 0.00 | 0.12 | 32 | 879.4 |
| 20260506004310 | 63 | 328 | 9.0 | 21.0 | 0.00 | 0.00 | 0.12 | 32 | 879.7 |
| 20260506003254 | 63 | 330 | 10.0 | 19.0 | 0.00 | 0.00 | 0.12 | 33 | 879.3 |
| 20260506002753 | 64 | 325 | 6.0 | 18.0 | 0.00 | 0.00 | 0.12 | 33 | 879.3 |
| 20260506002251 | 64 | 297 | 8.0 | 18.0 | 0.00 | 0.00 | 0.12 | 33 | 879.1 |
| 20260506001750 | 64 | 287 | 8.0 | 18.0 | 0.00 | 0.00 | 0.12 | 34 | 879.5 |
| 20260506001249 | 64 | 335 | 9.0 | 20.0 | 0.00 | 0.00 | 0.12 | 34 | 879.0 |
| 20260506000233 | 65 | 266 | 7.0 | 19.0 | 0.00 | 0.00 | 0.12 | 33 | 879.5 |
| 20260505235732 | 65 | 274 | 8.0 | 21.0 | 0.00 | 0.00 | 0.12 | 34 | 879.3 |
| 20260505235231 | 65 | 306 | 5.0 | 21.0 | 0.00 | 0.00 | 0.12 | 33 | 879.2 |
| 20260505234731 | 65 | 297 | 6.0 | 19.0 | 0.00 | 0.00 | 0.12 | 33 | 879.3 |
| 20260505234230 | 65 | 304 | 8.0 | 16.0 | 0.00 | 0.00 | 0.12 | 32 | 878.8 |
| 20260505233730 | 65 | 292 | 8.0 | 18.0 | 0.00 | 0.00 | 0.12 | 33 | 879.5 |
| 20260505233228 | 66 | 330 | 9.0 | 18.0 | 0.00 | 0.00 | 0.12 | 32 | 879.2 |
| 20260505232727 | 66 | 317 | 9.0 | 16.0 | 0.00 | 0.00 | 0.12 | 32 | 878.8 |
| 20260505231711 | 66 | 280 | 7.0 | 21.0 | 0.00 | 0.00 | 0.12 | 32 | 879.1 |
| 20260505231210 | 66 | 321 | 9.0 | 20.0 | 0.00 | 0.00 | 0.12 | 33 | 879.0 |
| 20260505230709 | 66 | 281 | 9.0 | 20.0 | 0.00 | 0.00 | 0.12 | 34 | 878.9 |
| 20260505225652 | 66 | 319 | 6.0 | 23.0 | 0.00 | 0.00 | 0.12 | 35 | 879.0 |
| 20260505225151 | 66 | 307 | 8.0 | 23.0 | 0.00 | 0.00 | 0.12 | 34 | 879.2 |
| 20260505224650 | 67 | 340 | 6.0 | 18.0 | 0.00 | 0.00 | 0.12 | 33 | 879.0 |
| 20260505224149 | 66 | 283 | 6.0 | 18.0 | 0.00 | 0.00 | 0.12 | 34 | 879.2 |
| 20260505223649 | 67 | 317 | 8.0 | 18.0 | 0.00 | 0.00 | 0.12 | 32 | 879.1 |
| 20260505223147 | 67 | 353 | 7.0 | 15.0 | 0.00 | 0.00 | 0.12 | 34 | 879.3 |
| 20260505222646 | 67 | 300 | 7.0 | 16.0 | 0.00 | 0.00 | 0.12 | 34 | 879.3 |
| 20260505222145 | 66 | 276 | 9.0 | 19.0 | 0.00 | 0.00 | 0.12 | 35 | 879.5 |
| 20260505221645 | 66 | 282 | 10.0 | 19.0 | 0.00 | 0.00 | 0.12 | 34 | 878.9 |
| 20260505221143 | 65 | 263 | 6.0 | 16.0 | 0.00 | 0.00 | 0.12 | 35 | 879.5 |
| 20260505220643 | 65 | 274 | 8.0 | 19.0 | 0.00 | 0.00 | 0.12 | 37 | 879.5 |
| 20260505220141 | 64 | 256 | 9.0 | 19.0 | 0.00 | 0.00 | 0.12 | 38 | 879.6 |
| 20260505215640 | 64 | 288 | 5.0 | 16.0 | 0.00 | 0.00 | 0.12 | 35 | 879.4 |
| 20260505214633 | 64 | 237 | 9.0 | 16.0 | 0.00 | 0.00 | 0.12 | 35 | 879.5 |
| 20260505213617 | 64 | 251 | 9.0 | 18.0 | 0.00 | 0.00 | 0.12 | 36 | 879.6 |
| 20260505213116 | 64 | 288 | 6.0 | 16.0 | 0.00 | 0.00 | 0.12 | 36 | 879.4 |
| 20260505212616 | 65 | 216 | 4.0 | 19.0 | 0.00 | 0.00 | 0.12 | 36 | 879.7 |
| 20260505212114 | 65 | 292 | 10.0 | 23.0 | 0.00 | 0.00 | 0.12 | 35 | 879.7 |
| 20260505211613 | 65 | 274 | 8.0 | 15.0 | 0.00 | 0.00 | 0.12 | 35 | 880.0 |
| 20260505211113 | 65 | 261 | 7.0 | 16.0 | 0.00 | 0.00 | 0.12 | 36 | 879.7 |
| 20260505210612 | 64 | 277 | 10.0 | 19.0 | 0.00 | 0.00 | 0.12 | 36 | 879.7 |
| 20260505205040 | 65 | 253 | 7.0 | 22.0 | 0.00 | 0.00 | 0.12 | 42 | 880.1 |
| 20260505204538 | 65 | 290 | 8.0 | 15.0 | 0.00 | 0.00 | 0.12 | 39 | 880.0 |
| 20260505204038 | 65 | 148 | 5.0 | 18.0 | 0.00 | 0.00 | 0.12 | 42 | 880.1 |
| 20260505203537 | 65 | 275 | 7.0 | 28.0 | 0.00 | 0.00 | 0.12 | 42 | 880.0 |
| 20260505203036 | 66 | 284 | 9.0 | 28.0 | 0.00 | 0.00 | 0.12 | 40 | 879.7 |
| 20260505202535 | 67 | 264 | 5.0 | 14.0 | 0.00 | 0.00 | 0.12 | 35 | 880.0 |
| 20260505202034 | 67 | 335 | 2.0 | 12.0 | 0.00 | 0.00 | 0.12 | 41 | 880.1 |
| 20260505201533 | 66 | 276 | 5.0 | 13.0 | 0.00 | 0.00 | 0.12 | 41 | 880.0 |
| 20260505200516 | 66 | 233 | 8.0 | 20.0 | 0.00 | 0.00 | 0.12 | 41 | 879.8 |
| 20260505195500 | 66 | 280 | 8.0 | 20.0 | 0.00 | 0.00 | 0.12 | 43 | 880.0 |
| 20260505194959 | 66 | 278 | 9.0 | 16.0 | 0.00 | 0.00 | 0.12 | 42 | 880.1 |
| 20260505194458 | 66 | 312 | 6.0 | 13.0 | 0.00 | 0.00 | 0.12 | 43 | 880.2 |
| 20260505193957 | 66 | 241 | 4.0 | 14.0 | 0.00 | 0.00 | 0.12 | 45 | 880.3 |
| 20260505193456 | 66 | 272 | 6.0 | 14.0 | 0.00 | 0.00 | 0.12 | 45 | 880.0 |
| 20260505192956 | 66 | 265 | 5.0 | 14.0 | 0.00 | 0.00 | 0.12 | 43 | 880.2 |
| 20260505192455 | 66 | 283 | 5.0 | 11.0 | 0.00 | 0.00 | 0.12 | 43 | 880.3 |
| 20260505191438 | 65 | 242 | 4.0 | 20.0 | 0.00 | 0.00 | 0.12 | 46 | 880.3 |
| 20260505190937 | 64 | 278 | 9.0 | 20.0 | 0.00 | 0.00 | 0.12 | 49 | 880.3 |
| 20260505190436 | 63 | 281 | 5.0 | 15.0 | 0.00 | 0.00 | 0.12 | 48 | 880.5 |
| 20260505185935 | 62 | 280 | 9.0 | 15.0 | 0.00 | 0.00 | 0.12 | 52 | 880.6 |
| 20260505184915 | 62 | 273 | 10.0 | 18.0 | 0.00 | 0.00 | 0.12 | 52 | 881.0 |
| 20260505184414 | 62 | 292 | 5.0 | 19.0 | 0.00 | 0.00 | 0.12 | 53 | 880.8 |
| 20260505183358 | 60 | 277 | 6.0 | 15.0 | 0.00 | 0.00 | 0.12 | 58 | 881.2 |
| 20260505182857 | 60 | 296 | 4.0 | 11.0 | 0.00 | 0.00 | 0.12 | 62 | 881.0 |
| 20260505182356 | 60 | 322 | 3.0 | 11.0 | 0.00 | 0.00 | 0.12 | 63 | 881.0 |
| 20260505181855 | 60 | 300 | 6.0 | 11.0 | 0.00 | 0.00 | 0.12 | 62 | 881.2 |
| 20260505181354 | 60 | 311 | 5.0 | 11.0 | 0.00 | 0.00 | 0.12 | 64 | 881.1 |
| 20260505180853 | 60 | 307 | 4.0 | 11.0 | 0.00 | 0.00 | 0.12 | 65 | 881.3 |
| 20260505175837 | 59 | 215 | 1.0 | 11.0 | 0.00 | 0.00 | 0.12 | 68 | 881.0 |
| 20260505174821 | 60 | 294 | 6.0 | 11.0 | 0.00 | 0.00 | 0.12 | 66 | 881.2 |
| 20260505174320 | 61 | 286 | 3.0 | 11.0 | 0.00 | 0.00 | 0.12 | 65 | 881.1 |
| 20260505173819 | 61 | 309 | 4.0 | 11.0 | 0.00 | 0.00 | 0.12 | 67 | 881.3 |
| 20260505173318 | 61 | 317 | 1.0 | 11.0 | 0.00 | 0.00 | 0.12 | 69 | 881.4 |
| 20260505172817 | 60 | 341 | 3.0 | 11.0 | 0.00 | 0.00 | 0.12 | 73 | 881.1 |
| 20260505172316 | 59 | 299 | 2.0 | 11.0 | 0.00 | 0.00 | 0.12 | 69 | 881.1 |
| 20260505171816 | 60 | 336 | 4.0 | 11.0 | 0.00 | 0.00 | 0.12 | 73 | 880.9 |
| 20260505171315 | 59 | 352 | 3.0 | 11.0 | 0.00 | 0.00 | 0.12 | 70 | 881.1 |
| 20260505170814 | 58 | 257 | 1.0 | 11.0 | 0.00 | 0.00 | 0.12 | 71 | 881.1 |
| 20260505165758 | 58 | 321 | 5.0 | 13.0 | 0.00 | 0.00 | 0.12 | 71 | 881.0 |
| 20260505165256 | 59 | 262 | 4.0 | 11.0 | 0.00 | 0.00 | 0.12 | 68 | 881.3 |
| 20260505164755 | 58 | 295 | 3.0 | 13.0 | 0.00 | 0.00 | 0.12 | 71 | 881.1 |
| 20260505164254 | 58 | 256 | 2.0 | 13.0 | 0.00 | 0.00 | 0.12 | 72 | 881.3 |
| 20260505163754 | 58 | 297 | 6.0 | 12.0 | 0.00 | 0.00 | 0.12 | 71 | 881.1 |
| 20260505162737 | 58 | 317 | 4.0 | 12.0 | 0.00 | 0.00 | 0.12 | 75 | 880.9 |
| 20260505162236 | 57 | 306 | 1.0 | 12.0 | 0.00 | 0.00 | 0.12 | 78 | 881.2 |
| 20260505161735 | 56 | 306 | 0.0 | 12.0 | 0.00 | 0.00 | 0.12 | 83 | 881.0 |
| 20260505161234 | 56 | 348 | 1.0 | 12.0 | 0.00 | 0.00 | 0.12 | 83 | 881.1 |
| 20260505160734 | 56 | 332 | 1.0 | 12.0 | 0.00 | 0.00 | 0.12 | 83 | 881.2 |
| 20260505160233 | 56 | 356 | 2.0 | 12.0 | 0.00 | 0.00 | 0.12 | 83 | 881.3 |
| 20260505153215 | 55 | 312 | 1.0 | 12.0 | 0.00 | 0.00 | 0.12 | 84 | 881.3 |
| 20260505152714 | 55 | 298 | 0.0 | 12.0 | 0.00 | 0.00 | 0.12 | 83 | 881.3 |
| 20260505152214 | 54 | 288 | 1.0 | 12.0 | 0.00 | 0.00 | 0.12 | 81 | 881.0 |
| 20260505151713 | 55 | 292 | 2.0 | 12.0 | 0.00 | 0.00 | 0.12 | 81 | 881.1 |
| 20260505151213 | 55 | 257 | 1.0 | 12.0 | 0.00 | 0.00 | 0.12 | 81 | 881.1 |
| 20260505150712 | 54 | 256 | 0.0 | 12.0 | 0.00 | 0.00 | 0.12 | 81 | 880.9 |
| 20260505150210 | 54 | 237 | 1.0 | 12.0 | 0.00 | 0.00 | 0.12 | 82 | 881.2 |
| 20260505140203 | 52 | 187 | 0.0 | 12.0 | 0.00 | 0.00 | 0.12 | 88 | 880.8 |
| 20260505130155 | 50 | 108 | 4.0 | 13.0 | 0.05 | 0.00 | 0.12 | 90 | 880.2 |
| 20260505124638 | 50 | 137 | 4.0 | 11.0 | 0.05 | 0.00 | 0.12 | 90 | 880.0 |
| 20260505123106 | 50 | 121 | 2.0 | 12.0 | 0.04 | 0.00 | 0.11 | 91 | 880.2 |
| 20260505122605 | 50 | 65 | 4.0 | 15.0 | 0.04 | 0.00 | 0.11 | 91 | 880.2 |
| 20260505122105 | 50 | 107 | 5.0 | 15.0 | 0.04 | 0.00 | 0.11 | 90 | 880.2 |
| 20260505121604 | 50 | 139 | 3.0 | 15.0 | 0.05 | 0.00 | 0.11 | 90 | 880.1 |
| 20260505120548 | 50 | 135 | 7.0 | 14.0 | 0.00 | 0.00 | 0.06 | 87 | 880.4 |
| 20260505120047 | 50 | 76 | 4.0 | 11.0 | 0.00 | 0.00 | 0.06 | 89 | 879.7 |
| 20260505115547 | 50 | 119 | 6.0 | 13.0 | 0.00 | 0.00 | 0.06 | 89 | 879.7 |
| 20260505115046 | 50 | 127 | 6.0 | 16.0 | 0.00 | 0.00 | 0.06 | 91 | 879.5 |
| 20260505114546 | 50 | 111 | 7.0 | 16.0 | 0.00 | 0.00 | 0.06 | 91 | 879.4 |
| 20260505113530 | 50 | 111 | 8.0 | 16.0 | 0.00 | 0.00 | 0.06 | 91 | 879.4 |
| 20260505113029 | 50 | 138 | 5.0 | 19.0 | 0.00 | 0.00 | 0.06 | 91 | 879.8 |
| 20260505112529 | 50 | 128 | 5.0 | 19.0 | 0.00 | 0.00 | 0.06 | 91 | 879.9 |
| 20260505112028 | 50 | 131 | 7.0 | 14.0 | 0.00 | 0.00 | 0.06 | 90 | 880.4 |
| 20260505111528 | 50 | 173 | 5.0 | 14.0 | 0.00 | 0.00 | 0.06 | 90 | 880.3 |
| 20260505110511 | 50 | 141 | 6.0 | 14.0 | 0.00 | 0.00 | 0.06 | 90 | 880.4 |
| 20260505101948 | 50 | 113 | 9.0 | 19.0 | 0.01 | 0.00 | 0.06 | 87 | 880.3 |
| 20260505101447 | 51 | 124 | 8.0 | 16.0 | 0.02 | 0.00 | 0.06 | 86 | 880.8 |
| 20260505100946 | 51 | 153 | 7.0 | 15.0 | 0.01 | 0.00 | 0.05 | 85 | 880.9 |
| 20260505100445 | 51 | 155 | 8.0 | 14.0 | 0.01 | 0.00 | 0.05 | 84 | 881.4 |
| 20260505095944 | 51 | 155 | 8.0 | 14.0 | 0.01 | 0.00 | 0.05 | 84 | 880.9 |
| 20260505095443 | 51 | 150 | 8.0 | 14.0 | 0.01 | 0.00 | 0.05 | 83 | 881.1 |
| 20260505094943 | 51 | 112 | 5.0 | 14.0 | 0.03 | 0.00 | 0.05 | 85 | 881.1 |
| 20260505094443 | 51 | 137 | 6.0 | 13.0 | 0.03 | 0.00 | 0.05 | 85 | 881.2 |
| 20260505093943 | 51 | 131 | 6.0 | 13.0 | 0.04 | 0.00 | 0.05 | 84 | 881.3 |
| 20260505093441 | 51 | 139 | 3.0 | 13.0 | 0.03 | 0.00 | 0.04 | 85 | 881.7 |
| 20260505092940 | 51 | 92 | 3.0 | 13.0 | 0.03 | 0.00 | 0.04 | 86 | 881.8 |
| 20260505092439 | 51 | 290 | 0.0 | 13.0 | 0.03 | 0.00 | 0.04 | 89 | 882.1 |
| 20260505091938 | 51 | 222 | 2.0 | 13.0 | 0.04 | 0.00 | 0.04 | 91 | 881.9 |
| 20260505091437 | 51 | 215 | 1.0 | 13.0 | 0.04 | 0.00 | 0.04 | 92 | 882.3 |
| 20260505090936 | 51 | 242 | 0.0 | 13.0 | 0.03 | 0.00 | 0.03 | 92 | 882.2 |
| 20260505090436 | 51 | 299 | 1.0 | 13.0 | 0.03 | 0.00 | 0.03 | 92 | 882.2 |
| 20260505085935 | 51 | 136 | 1.0 | 13.0 | 0.03 | 0.00 | 0.03 | 92 | 882.6 |
| 20260505085434 | 51 | 289 | 2.0 | 13.0 | 0.03 | 0.00 | 0.03 | 92 | 882.5 |
| 20260505084933 | 51 | 274 | 2.0 | 13.0 | 0.01 | 0.00 | 0.01 | 91 | 882.6 |
| 20260505084433 | 51 | 297 | 4.0 | 13.0 | 0.01 | 0.00 | 0.01 | 91 | 882.9 |
| 20260505083932 | 52 | 108 | 2.0 | 13.0 | 0.01 | 0.00 | 0.01 | 91 | 882.8 |
| 20260505082915 | 52 | 284 | 5.0 | 12.0 | 0.00 | 0.00 | 0.00 | 90 | 883.1 |
| 20260505082414 | 52 | 267 | 5.0 | 12.0 | 0.00 | 0.00 | 0.00 | 90 | 883.3 |
| 20260505081913 | 52 | 307 | 5.0 | 11.0 | 0.00 | 0.00 | 0.00 | 89 | 882.9 |
| 20260505081412 | 52 | 258 | 2.0 | 11.0 | 0.00 | 0.00 | 0.00 | 88 | 883.2 |
| 20260505080911 | 53 | 269 | 3.0 | 11.0 | 0.00 | 0.00 | 0.00 | 87 | 883.0 |
| 20260505080410 | 53 | 292 | 2.0 | 11.0 | 0.00 | 0.00 | 0.00 | 86 | 883.4 |
| 20260505075354 | 54 | 36 | 1.0 | 11.0 | 0.00 | 0.00 | 0.00 | 83 | 883.5 |
| 20260505074854 | 54 | 262 | 3.0 | 11.0 | 0.00 | 0.00 | 0.00 | 81 | 883.3 |
| 20260505074353 | 54 | 270 | 4.0 | 11.0 | 0.00 | 0.00 | 0.00 | 79 | 883.4 |
| 20260505073852 | 54 | 287 | 5.0 | 11.0 | 0.00 | 0.00 | 0.00 | 78 | 883.3 |
| 20260505073351 | 54 | 279 | 2.0 | 11.0 | 0.00 | 0.00 | 0.00 | 77 | 883.4 |
| 20260505072850 | 55 | 287 | 4.0 | 14.0 | 0.00 | 0.00 | 0.00 | 76 | 883.3 |
| 20260505072350 | 55 | 273 | 2.0 | 14.0 | 0.00 | 0.00 | 0.00 | 76 | 883.2 |
| 20260505071849 | 55 | 292 | 5.0 | 13.0 | 0.00 | 0.00 | 0.00 | 75 | 883.3 |
| 20260505070832 | 55 | 271 | 4.0 | 13.0 | 0.00 | 0.00 | 0.00 | 75 | 883.3 |
| 20260505070331 | 55 | 290 | 4.0 | 13.0 | 0.00 | 0.00 | 0.00 | 76 | 883.2 |
| 20260505065831 | 55 | 286 | 2.0 | 13.0 | 0.00 | 0.00 | 0.00 | 76 | 883.1 |
| 20260505065330 | 55 | 299 | 3.0 | 13.0 | 0.00 | 0.00 | 0.00 | 76 | 883.1 |
| 20260505064829 | 55 | 276 | 2.0 | 13.0 | 0.00 | 0.00 | 0.00 | 76 | 883.3 |
| 20260505064328 | 55 | 310 | 4.0 | 13.0 | 0.00 | 0.00 | 0.00 | 76 | 883.4 |
| 20260505063828 | 55 | 305 | 4.0 | 13.0 | 0.00 | 0.00 | 0.00 | 75 | 883.2 |
| 20260505062812 | 55 | 284 | 5.0 | 13.0 | 0.00 | 0.00 | 0.00 | 74 | 883.5 |
| 20260505062311 | 56 | 307 | 5.0 | 13.0 | 0.00 | 0.00 | 0.00 | 74 | 883.4 |
| 20260505061810 | 56 | 298 | 6.0 | 13.0 | 0.00 | 0.00 | 0.00 | 73 | 883.0 |
| 20260505061309 | 56 | 278 | 6.0 | 13.0 | 0.00 | 0.00 | 0.00 | 73 | 883.1 |
| 20260505060808 | 56 | 286 | 4.0 | 12.0 | 0.00 | 0.00 | 0.00 | 73 | 883.1 |
| 20260505060307 | 56 | 292 | 4.0 | 12.0 | 0.00 | 0.00 | 0.00 | 73 | 883.3 |
| 20260505055806 | 56 | 287 | 4.0 | 12.0 | 0.00 | 0.00 | 0.00 | 74 | 883.4 |
| 20260505055306 | 56 | 289 | 5.0 | 12.0 | 0.00 | 0.00 | 0.00 | 74 | 883.4 |
| 20260505054806 | 56 | 289 | 5.0 | 12.0 | 0.00 | 0.00 | 0.00 | 73 | 883.4 |
| 20260505054305 | 56 | 298 | 3.0 | 12.0 | 0.00 | 0.00 | 0.00 | 73 | 883.4 |
| 20260505053804 | 56 | 296 | 4.0 | 12.0 | 0.00 | 0.00 | 0.00 | 73 | 883.4 |
| 20260505053303 | 56 | 289 | 5.0 | 11.0 | 0.00 | 0.00 | 0.00 | 72 | 883.5 |
| 20260505052802 | 56 | 310 | 5.0 | 11.0 | 0.00 | 0.00 | 0.00 | 72 | 883.7 |
| 20260505052301 | 57 | 307 | 4.0 | 13.0 | 0.00 | 0.00 | 0.00 | 70 | 883.5 |
| 20260505051800 | 57 | 310 | 2.0 | 13.0 | 0.00 | 0.00 | 0.00 | 69 | 883.5 |
| 20260505051259 | 57 | 305 | 3.0 | 13.0 | 0.00 | 0.00 | 0.00 | 66 | 883.8 |
| 20260505050758 | 57 | 311 | 2.0 | 13.0 | 0.00 | 0.00 | 0.00 | 64 | 883.6 |
| 20260505050257 | 57 | 319 | 2.0 | 13.0 | 0.00 | 0.00 | 0.00 | 61 | 883.8 |
| 20260505041736 | 57 | 66 | 2.0 | 13.0 | 0.00 | 0.00 | 0.00 | 55 | 882.8 |
| 20260505041235 | 57 | 345 | 2.0 | 13.0 | 0.00 | 0.00 | 0.00 | 54 | 882.7 |
| 20260505040734 | 57 | 188 | 1.0 | 13.0 | 0.00 | 0.00 | 0.00 | 54 | 882.7 |
| 20260505040233 | 57 | 146 | 5.0 | 13.0 | 0.00 | 0.00 | 0.00 | 54 | 882.7 |
| 20260505035732 | 57 | 139 | 6.0 | 13.0 | 0.00 | 0.00 | 0.00 | 54 | 883.0 |
| 20260505035232 | 57 | 138 | 6.0 | 13.0 | 0.00 | 0.00 | 0.00 | 54 | 882.9 |
| 20260505034215 | 57 | 149 | 5.0 | 13.0 | 0.00 | 0.00 | 0.00 | 55 | 882.9 |
| 20260505033715 | 57 | 235 | 3.0 | 13.0 | 0.00 | 0.00 | 0.00 | 55 | 882.9 |
| 20260505033215 | 57 | 314 | 1.0 | 13.0 | 0.00 | 0.00 | 0.00 | 55 | 883.0 |
| 20260505032713 | 57 | 234 | 1.0 | 13.0 | 0.00 | 0.00 | 0.00 | 54 | 883.2 |
| 20260505032213 | 57 | 158 | 2.0 | 13.0 | 0.00 | 0.00 | 0.00 | 55 | 882.4 |
| 20260505031156 | 56 | 335 | 6.0 | 11.0 | 0.00 | 0.00 | 0.00 | 56 | 882.8 |
| 20260505030655 | 57 | 349 | 4.0 | 11.0 | 0.00 | 0.00 | 0.00 | 54 | 882.9 |
| 20260505030154 | 57 | 310 | 3.0 | 12.0 | 0.00 | 0.00 | 0.00 | 51 | 883.2 |
| 20260505025652 | 58 | 354 | 4.0 | 12.0 | 0.00 | 0.00 | 0.00 | 51 | 882.9 |
| 20260505024635 | 56 | 281 | 8.0 | 15.0 | 0.00 | 0.00 | 0.00 | 53 | 882.6 |
| 20260505024134 | 55 | 297 | 4.0 | 12.0 | 0.00 | 0.00 | 0.00 | 61 | 882.7 |
| 20260505023633 | 55 | 338 | 4.0 | 12.0 | 0.00 | 0.00 | 0.00 | 62 | 882.7 |
| 20260505023133 | 55 | 313 | 3.0 | 12.0 | 0.00 | 0.00 | 0.00 | 59 | 882.8 |
| 20260505022632 | 56 | 308 | 4.0 | 12.0 | 0.00 | 0.00 | 0.00 | 58 | 883.1 |
| 20260505022131 | 56 | 309 | 5.0 | 12.0 | 0.00 | 0.00 | 0.00 | 56 | 883.2 |
| 20260505021629 | 57 | 301 | 5.0 | 12.0 | 0.00 | 0.00 | 0.00 | 54 | 883.1 |
| 20260505021128 | 57 | 321 | 4.0 | 12.0 | 0.00 | 0.00 | 0.00 | 53 | 883.2 |
| 20260505020628 | 58 | 309 | 5.0 | 12.0 | 0.00 | 0.00 | 0.00 | 52 | 883.0 |
| 20260505020127 | 58 | 319 | 3.0 | 12.0 | 0.00 | 0.00 | 0.00 | 52 | 882.7 |
| 20260505015108 | 58 | 337 | 5.0 | 12.0 | 0.00 | 0.00 | 0.00 | 50 | 882.7 |
| 20260505014607 | 59 | 337 | 3.0 | 12.0 | 0.00 | 0.00 | 0.00 | 48 | 882.6 |
| 20260505014107 | 59 | 315 | 4.0 | 12.0 | 0.00 | 0.00 | 0.00 | 48 | 882.7 |